Location: Avully
(45.9633°N, 6.0228°E)
Time: 20:11:15
(UTC+00:00)

RESURS DK-1 - Pass Details

Date: 23 May 2024
Orbit: 541 x 547 km, 69.9° (Epoch: 14 June)

Event Time Altitude Azimuth Distance (km) Brightness Sun altitude
Rises 02:04:19 0° 334° (NNW) 2,721 6.3 -15.1°
Reaches altitude 10° 02:06:32 10° 338° (NNW) 1,824 5.4 -14.8°
Maximum altitude 02:10:34 61° 60° (ENE) 624 2.8 -14.4°
Drops below altitude 10° 02:14:35 10° 141° (SE) 1,814 4.8 -14.0°
Sets 02:16:47 0° 145° (SE) 2,704 5.7 -13.7°
